Weather History for Bangor, ME

Change the Weather History Date:

Sunday, September 16, 2012

  Actual Average Record
Temperature  
Mean Temperature 53 °F 59 °F  
Max Temperature 64 °F 70 °F 97 °F (1939)
Min Temperature 42 °F 48 °F 33 °F (1959)
Degree Days  
Heating Degree Days 12 7  
Month to date heating degree days 65 76  
Since 1 July heating degree days 67 139  
Cooling Degree Days 0 1  
Month to date cooling degree days 11 20  
Year to date cooling degree days 395 314  
Growing Degree Days 4 (Base 50)    
Moisture  
Dew Point 38 °F    
Average Humidity 63    
Maximum Humidity 89    
Minimum Humidity 36    
Precipitation  
Precipitation 0.00 in 0.14 in 3.03 in (1999)
Month to date precipitation 3.65 1.86  
Year to date precipitation 27.94 28.11  
Snow  
Snow 0.00 in 0.00 in 0.00 in (2002)
Month to date snowfall 0.0 0.0  
Since 1 July snowfall 0.0 0.0  
Since 1 September snowfall 0.0 0.0  
Snow Depth 0.00 in    
Sea Level Pressure  
Sea Level Pressure 29.96 in    
Wind  
Wind Speed 6 mph (West)    
Max Wind Speed 20 mph    
Max Gust Speed 26 mph    
Visibility 10 miles    
Events      
T = Trace of Precipitation, MM = Missing Value Source: NWS Daily Summary

Daily Weather History Graph

Daily Weather History Graph

Search for Another Location

Airport:

Trip Planner

Search our weather history database for the weather conditions in past years. The results will help you decide how hot, cold, wet, or windy it might be!

Date:

Astronomy

Sep. 16, 2012 Rise Set
Actual Time 6:15 AM EDT 6:43 PM EDT
Civil Twilight 5:46 AM EDT 7:12 PM EDT
Nautical Twilight 5:11 AM EDT 7:47 PM EDT
Astronomical Twilight 4:35 AM EDT 8:22 PM EDT
Moon 6:55 AM EDT (9/16) 6:40 PM EDT (9/16)
Length of Visible Light 13h 26m
Length of Day
12h 27m
New Moon, 0% of the Moon is Illuminated
Sep 16
New Moon
Sep 22
First Quarter
Sep 29
Full
Oct 8
Last Quarter
Oct 15
New

Hourly Weather History & Observations

Time (EDT) Temp. Windchill Dew Point Humidity Pressure Visibility Wind Dir Wind Speed Gust Speed Precip Events Conditions
12:53 AM 48.0 °F - 42.1 °F 80% 29.97 in 10.0 mi West 4.6 mph - N/A   Clear
1:53 AM 44.1 °F - 41.0 °F 89% 29.96 in 10.0 mi Calm Calm - N/A   Clear
2:53 AM 46.9 °F - 42.1 °F 83% 29.95 in 10.0 mi West 5.8 mph - N/A   Clear
3:53 AM 46.9 °F - 41.0 °F 80% 29.95 in 10.0 mi West 4.6 mph - N/A   Clear
4:53 AM 45.0 °F 43.5 °F 39.9 °F 82% 29.96 in 10.0 mi West 3.5 mph - N/A   Clear
5:53 AM 44.1 °F 41.5 °F 39.0 °F 82% 29.97 in 10.0 mi West 4.6 mph - N/A   Clear
6:53 AM 45.0 °F 42.6 °F 37.0 °F 74% 29.98 in 10.0 mi West 4.6 mph - N/A   Clear
7:53 AM 48.0 °F - 37.9 °F 68% 29.99 in 10.0 mi West 8.1 mph - N/A   Clear
8:53 AM 51.1 °F - 37.0 °F 59% 30.00 in 10.0 mi WNW 8.1 mph 18.4 mph N/A   Clear
9:53 AM 53.1 °F - 37.0 °F 55% 29.99 in 10.0 mi WNW 9.2 mph 20.7 mph N/A   Partly Cloudy
10:53 AM 57.0 °F - 37.0 °F 47% 29.97 in 10.0 mi West 16.1 mph 24.2 mph N/A   Partly Cloudy
11:53 AM 59.0 °F - 36.0 °F 42% 29.96 in 10.0 mi WNW 9.2 mph 21.9 mph N/A   Partly Cloudy
12:53 PM 60.1 °F - 37.0 °F 42% 29.94 in 10.0 mi WSW 9.2 mph - N/A   Partly Cloudy
1:53 PM 62.1 °F - 37.0 °F 39% 29.93 in 10.0 mi West 11.5 mph 19.6 mph N/A   Partly Cloudy
2:53 PM 63.0 °F - 36.0 °F 37% 29.93 in 10.0 mi West 10.4 mph 19.6 mph N/A   Partly Cloudy
3:53 PM 63.0 °F - 36.0 °F 37% 29.92 in 10.0 mi West 9.2 mph - N/A   Clear
4:53 PM 63.0 °F - 36.0 °F 37% 29.91 in 10.0 mi West 11.5 mph - N/A   Clear
5:53 PM 61.0 °F - 36.0 °F 39% 29.92 in 10.0 mi West 6.9 mph - N/A   Clear
6:53 PM 55.0 °F - 37.0 °F 51% 29.94 in 10.0 mi NW 3.5 mph - N/A   Clear
7:53 PM 48.9 °F - 39.9 °F 71% 29.97 in 10.0 mi West 4.6 mph - N/A   Clear
8:53 PM 51.1 °F - 39.0 °F 63% 29.98 in 10.0 mi WSW 4.6 mph - N/A   Clear
9:53 PM 51.1 °F - 39.0 °F 63% 29.99 in 10.0 mi West 8.1 mph - N/A   Clear
10:53 PM 46.9 °F - 39.0 °F 74% 30.01 in 10.0 mi West 5.8 mph - N/A   Clear
11:53 PM 46.9 °F - 39.0 °F 74% 30.01 in 10.0 mi WSW 4.6 mph - N/A   Clear